Showing default

SHIYAN 27A, 63599

Orbit data source: Space-Track

SHIYAN 27A, 63599 is a payload satellite owned by CAST (CN) in SSO that was launched on Fri, 18 Apr 2025 UTC via a CHANG ZHENG 6A launch vehicle from the Taiyaun Space Center, China (TSC). Payload-class satellites include a variety of spacecraft equipped with specific instruments for various scientific and technological missions. These include communications satellites like Starlink; space stations such as the ISS; scientific satellites like the Hubble; Earth observation satellites from companies like Planet Labs, Umbra, and HawkEye 360; GPS; miniature CubeSats for education and research; and military/defense satellites.

Loading next visibility...
Identifier
63599, 2025-078A
Orbit
SSO
Country
Flag of CNCN / PRC
Related business
Manufacturer
CAST
Mission
Operational Defense Radar Imaging
Bus & Motor
SW27, Unknown motor
Mass
300 kg wet, ~300 kg dry
Launch date (UTC)
2025-04-18 (1 year ago)
Launch vehicle
CHANG ZHENG 6A
Launch site
Taiyaun Space Center, China (TSC)
Object type
Payload
Rocket body
Debris
Shape & HBR
Box + 1 Pan, 2.4 m
Radar Cross Section
13.200 m², Large (>1 m²)

Expand to show TLE details & history
Last TLE update: 12 hours ago

TLE from 12 hours ago
0 SHIYAN 27A
1 63599U 25078A   26171.48926955 -.00000009  00000-0  48678-4 0  9996
2 63599  99.6894 178.6680 0001123  82.4800 277.6466 13.57250768 57985
Epoch: 2026-06-20T11:44Z
TLE epoch observation values (Epoch: 2026-06-20T11:44:32.889Z)
Latitude
0.00001°
Longitude
93.8278°
Altitude
1,048.385 km
Speed
7.328 km/s
True Right ascension
11h 54m 40s
True Declination
0° 00' 00"
Sunlit
Object was in daylight at epoch
Visualization orbit readout
Latitude
Unknown
Longitude
Unknown
Altitude
Unknown
Speed
Unknown
Apparent Right ascension
Unknown
Apparent Declination
Unknown
Sunlit
N/A
Visualization observer readout
Local Sidereal Time
10:19:34
Azimuth
Unknown
Elevation
Unknown
Doppler factor
Unknown
Orbital elements
Apogee altitude
1,043.825 km
Perigee altitude
1,042.158 km
Semi-major axis
7,421.128 km
Eccentricity
0.00011
Inclination
99.6894°
RAAN
178.668°
Arg. of periapsis
82.48°
True anomaly
277.63385°
Mean anomaly
277.6466°
Eccentric anomaly
277.64022°
Mean motion
3.39499 °/min
Orbital period
106.04 mins
BSTAR
0.000048678
Loading maneuver chart data...
Computing Atmospheric mass density...
Loading historical data...
Loading historical data...
Loading historical data...
Loading historical data...
Loading historical data...
Loading historical data...
Loading historical data...

Documentation

Showing up to 5 results
|